Home > Time Zones > World Clock > Weather > Japan > Naha > Past weeks

Flag for Japan Weather past 2 weeks in Naha, Okinawa, Japan

Now
84 °F

Passing clouds.


Feels Like: 92 °F
Forecast: 79 / 85 °F
Wind: 3 mph from East

Location: Naha Airport

Current Time: Aug 27, 2014 at 10:28:57 PM

Latest Report: Aug 27, 2014 at 10:00 PM


Visibility: N/A

Pressure: 29.95 "Hg

Humidity: 74%

Dew point: 75 °F

Location of NahaLocation

Historic Weather in Naha — Graph

°F

Naha temperature yesterday

Maximum temperature yesterday: 90 °F (at 3:30 PM)
Minimum temperature yesterday: 82 °F (at 3:00 AM)
Average temperature yesterday: 85 °F

Past Weeks' High & Low Weather Summary

 TemperatureHumidityPressure
High90 °F (Aug 25, 11:30 AM)94% (Aug 14, 5:46 PM)29.95 "Hg (Aug 14, 5:46 PM)
Low75 °F (Aug 17, 11:00 AM)62% (Aug 27, 1:00 PM)29.62 "Hg (Aug 13, 2:30 AM)
Average84 °F80%29.85 "Hg
* Reported Aug 12 9:00 PM — Aug 27 9:00 PM, Naha, Weather by CustomWeather, © 2014

Note: Actual official high and low records may vary slightly from our data, if they occured in-between our weather recording intervals... More about our weather records

Advertising

Naha weather history for previous 24 hours

 ConditionsComfort  
Time TempWeatherWind HumidityBarometerVisibility
9:00 PM
Aug 27
84 °FPassing clouds.6 mph74%29.95 "HgN/A
8:30 PM84 °FPassing clouds.6 mph74%29.92 "HgN/A
8:00 PM84 °FPassing clouds.5 mph74%29.92 "HgN/A
7:30 PM84 °FPassing clouds.5 mph74%29.92 "HgN/A
7:00 PM86 °FPassing clouds.5 mph66%29.92 "HgN/A
6:30 PM86 °FPassing clouds.5 mph66%29.92 "HgN/A
6:00 PM86 °FPassing clouds.5 mph66%29.92 "HgN/A
5:30 PM86 °FScattered showers. Scattered clouds.2 mph79%29.89 "HgN/A
5:00 PM84 °FSprinkles. Scattered clouds.5 mph74%29.92 "HgN/A
4:30 PM84 °FLots of rain. Scattered clouds.6 mph79%29.89 "HgN/A
4:00 PM84 °FStrong thunderstorms. Scattered clouds.5 mph79%29.92 "HgN/A
3:30 PM88 °FLots of rain. Scattered clouds.8 mph70%29.89 "HgN/A
3:00 PM88 °FSprinkles. Scattered clouds.10 mph70%29.89 "HgN/A
2:30 PM88 °FSprinkles. Passing clouds.7 mph70%29.92 "HgN/A
2:00 PM90 °FSprinkles. Passing clouds.6 mph63%29.92 "HgN/A
1:30 PM88 °FSprinkles. Passing clouds.7 mph66%29.92 "HgN/A
1:00 PM88 °FPassing clouds.6 mph62%29.92 "HgN/A
12:30 PM88 °FPassing clouds.7 mph70%29.92 "HgN/A
12:00 PM88 °FPassing clouds.7 mph66%29.92 "HgN/A
11:30 AM90 °FPassing clouds.8 mph67%29.95 "HgN/A
11:00 AM88 °FPassing clouds.10 mph66%29.95 "HgN/A
10:30 AM88 °FPassing clouds.8 mph66%29.95 "HgN/A
10:00 AM88 °FPassing clouds.6 mph66%29.95 "HgN/A
9:30 AM88 °FPassing clouds.8 mph66%29.95 "HgN/A
9:00 AM86 °FPassing clouds.9 mph75%29.95 "HgN/A
8:30 AM86 °FPassing clouds.6 mph75%29.92 "HgN/A
8:00 AM86 °FPassing clouds.2 mph75%29.92 "HgN/A
7:30 AM84 °FScattered clouds.3 mph79%29.92 "HgN/A
7:00 AM84 °FPassing clouds.2 mph79%29.92 "HgN/A
6:30 AM82 °FScattered clouds.1 mph84%29.89 "HgN/A
6:00 AM82 °FPassing clouds.2 mph79%29.89 "HgN/A
5:30 AM82 °FPassing clouds.2 mph79%29.89 "HgN/A
5:00 AM82 °FPassing clouds.1 mph79%29.89 "HgN/A
4:30 AM82 °FPassing clouds.1 mph79%29.89 "HgN/A
4:00 AM84 °FPassing clouds.1 mph74%29.89 "HgN/A
3:30 AM84 °FPassing clouds.2 mph74%29.89 "HgN/A
3:00 AM84 °FPassing clouds.1 mph74%29.89 "HgN/A
2:30 AM82 °FPassing clouds.2 mph79%29.89 "HgN/A
2:00 AM84 °FPassing clouds.2 mph74%29.89 "HgN/A
1:30 AM84 °FPassing clouds.3 mph74%29.89 "HgN/A
1:00 AM84 °FPassing clouds.2 mph79%29.92 "HgN/A
12:30 AM84 °FPassing clouds.5 mph79%29.92 "HgN/A
12:00 AM84 °FPassing clouds.3 mph79%29.92 "HgN/A
11:30 PM
Aug 26
84 °FPassing clouds.2 mph79%29.92 "HgN/A
11:00 PM84 °FPassing clouds.5 mph79%29.92 "HgN/A
10:30 PM84 °FPassing clouds.3 mph79%29.92 "HgN/A
10:00 PM84 °FPassing clouds.2 mph79%29.92 "HgN/A
Weather by CustomWeather, © 2014

See weather overviewHow to use our weather pages